User: anonymous   Login
Location: Hawks Ness
(60.2333°N, 1.1667°W)
Time: 08:24:35
(UTC+00:00)
Language:

Meteor 2-21 - Orbit

View from above orbital plane
View from above orbital plane
View from above satellite
View from above satellite

Ground track
Ground track

The orbit data is extracted from the following two-line orbital elements,

1 22782U 93055A   19347.85578552 -.00000008  00000-0 -20606-4 0  9990
2 22782  82.5490  21.6799 0023132  41.3604 131.2951 13.83822131327505
Epoch (UTC): 13 December 2019 20:32:19
Eccentricity: 0.0023132
inclination: 82.5490°
perigee height: 933 km
apogee height: 967 km
right ascension of ascending node: 21.6799°
argument of perigee: 41.3604°
revolutions per day: 13.83822131
mean anomaly at epoch: 131.2951°
orbit number at epoch: 32750

The dashed part of the orbit path shows where the satellite is in the earth's shadow,  

DLR